Flag for Cabo Verde Weather past 2 weeks in Santa Maria, Cabo Verde

Now
84 °F

Partly sunny.


Feels Like: 92 °F
Forecast: N/A
Wind: 14 mph from South

Location: Sal

Current Time: Sep 22, 2014 at 6:08:00 PM

Latest Report: Sep 22, 2014 at 4:00 PM


Visibility: N/A

Pressure: 29.86 "Hg

Humidity: 74%

Dew point: 75 °F

Location of Santa MariaLocation

Historic Weather in Santa Maria — Graph

°F

Santa Maria temperature yesterday

Maximum temperature yesterday: 79 °F (at 12:00 AM)
Minimum temperature yesterday: 75 °F (at 8:00 AM)
Average temperature yesterday: 77 °F

Past Weeks' High & Low Weather Summary

 TemperatureHumidityPressure
High91 °F (Sep 13, 11:00 AM)100% (Sep 9, 11:00 PM)29.98 "Hg (Sep 9, 11:00 PM)
Low75 °F (Sep 21, 8:00 AM)52% (Sep 14, 1:00 PM)29.83 "Hg (Sep 22, 5:00 AM)
Average81 °F79%29.92 "Hg
* Reported Sep 7 4:00 PM — Sep 22 4:00 PM, Santa Maria, Weather by CustomWeather, © 2014

Note: Actual official high and low records may vary slightly from our data, if they occured in-between our weather recording intervals... More about our weather records

Advertising

Santa Maria weather history for previous 24 hours

 ConditionsComfort  
Time TempWeatherWind HumidityBarometerVisibility
4:00 PM
Sep 22
84 °FPartly sunny.14 mph74%29.86 "HgN/A
3:00 PM84 °FBroken clouds.14 mph79%29.86 "HgN/A
2:00 PM86 °FPartly sunny.15 mph75%29.86 "HgN/A
1:00 PM88 °FPartly sunny.17 mph70%29.89 "HgN/A
12:00 PM88 °FScattered clouds.18 mph70%29.89 "HgN/A
11:00 AM86 °FPartly sunny.17 mph75%29.89 "HgN/A
10:00 AM84 °FScattered clouds.16 mph79%29.92 "HgN/A
9:00 AM81 °FPartly sunny.15 mph89%29.89 "HgN/A
8:00 AM79 °FBroken clouds.13 mph100%29.89 "HgN/A
7:00 AM77 °FBroken clouds.9 mph100%29.86 "HgN/A
6:00 AM77 °FDrizzle. Broken clouds.9 mph100%29.86 "HgN/A
5:00 AM77 °FDrizzle. Broken clouds.8 mph100%29.83 "Hg5 mi
4:00 AM77 °FMostly cloudy.7 mph100%29.86 "Hg6 mi
3:00 AM77 °FMostly cloudy.10 mph100%29.86 "Hg6 mi
2:00 AM77 °FPassing clouds.9 mph100%29.86 "Hg5 mi
1:00 AM77 °FLight rain. Passing clouds.8 mph100%29.89 "Hg5 mi
12:00 AM77 °FPassing clouds.8 mph100%29.89 "HgN/A
10:00 PM
Sep 21
77 °FOvercast.7 mph100%29.89 "HgN/A
9:00 PM77 °FDrizzle. Overcast.8 mph100%29.89 "Hg6 mi
8:00 PM77 °FOvercast.8 mph100%29.89 "HgN/A
7:00 PM77 °FDrizzle. Overcast.10 mph100%29.86 "Hg5 mi
6:00 PM77 °FDrizzle. Overcast.14 mph100%29.86 "Hg4 mi
Weather by CustomWeather, © 2014

See weather overviewHow to use our weather pages